Gold Coast Seaway Observation History
Time Wind Speed Temp Pressure Rel. Hum Rain
22/07:00am WSW 4-5 kts 20.2°c 1015.5 hPa 72% 0.0mm
22/06:30am WSW 4-5 kts 19.7°c 1015.2 hPa 73% 0.0mm
22/06:00am WSW 5-6 kts 19.4°c 1014.9 hPa 74% 0.0mm
22/05:30am SW 5-7 kts 19.1°c 1014.5 hPa 75% 0.0mm
22/05:00am SW 5-6 kts 19.2°c 1014.1 hPa 74% 0.0mm
22/04:30am SSW 4-6 kts 19.0°c 1013.8 hPa 76% 0.0mm
22/04:00am S 5-6 kts 18.9°c 1013.5 hPa 74% 0.0mm
22/03:30am SW 4-5 kts 19.2°c 1013.6 hPa 75% 0.0mm
22/03:00am SSW 3-5 kts 19.2°c 1013.9 hPa 75% 0.0mm
22/02:30am S 1-4 kts 18.9°c 1013.7 hPa 73% 0.0mm
22/02:00am CALM 0 kts 19.2°c 1014.2 hPa 72% 0.0mm
22/01:30am SW 2-4 kts 19.6°c 1015.0 hPa 72% 0.0mm
22/01:00am WSW 3-6 kts 19.7°c 1015.5 hPa 72% 0.0mm
22/12:30am WSW 4-5 kts 19.6°c 1015.9 hPa 73% 0.0mm
22/12:00am SW 5-6 kts 19.5°c 1016.2 hPa 72% 0.0mm
Time Wind Speed Temp Pressure Rel. Hum Rain
21/11:30pm ESE 1-4 kts 19.7°c 1016.3 hPa 69% 0.0mm
21/11:00pm NE 4-5 kts 20.4°c 1016.5 hPa 68% 0.0mm
21/10:30pm NE 6-8 kts 20.7°c 1016.5 hPa 68% 0.0mm
21/10:00pm NE 6-7 kts 20.7°c 1016.5 hPa 67% 0.0mm
21/09:30pm NE 7-9 kts 21.0°c 1016.3 hPa 66% 0.0mm
21/09:00pm NE 7-8 kts 21.2°c 1016.5 hPa 65% 0.0mm
21/08:30pm ENE 6-8 kts 21.1°c 1016.6 hPa 63% 0.0mm
21/08:00pm ENE 8-10 kts 21.2°c 1016.1 hPa 64% 0.0mm
21/07:30pm ENE 8-10 kts 21.2°c 1015.9 hPa 64% 0.0mm
21/07:00pm ENE 8-10 kts 21.1°c 1015.2 hPa 66% 0.0mm
21/06:30pm ENE 7-9 kts 21.1°c 1015.1 hPa 65% 0.0mm
21/06:00pm ENE 7-8 kts 21.2°c 1015.0 hPa 62% 0.0mm
21/05:30pm E 6-8 kts 21.4°c 1014.9 hPa 65% 0.0mm
21/05:00pm E 7-9 kts 21.5°c 1014.9 hPa 65% 0.0mm
21/04:30pm ENE 5-7 kts 21.7°c 1015.1 hPa 62% 0.0mm
21/04:00pm E 7-8 kts 21.9°c 1014.9 hPa 61% 0.0mm
21/03:30pm E 7-10 kts 22.2°c 1014.9 hPa 59% 0.0mm
21/03:00pm E 8-10 kts 22.8°c 1015.0 hPa 62% 0.0mm
21/02:30pm E 8-10 kts 22.9°c 1015.1 hPa 59% 0.0mm
21/02:00pm E 9-11 kts 22.7°c 1015.1 hPa 61% 0.0mm
21/01:30pm E 10-12 kts 23.5°c 1015.4 hPa 55% 0.0mm
21/01:00pm E 10-13 kts 23.7°c 1015.6 hPa 57% 0.0mm
21/12:30pm E 12-14 kts 23.6°c 1015.8 hPa 57% 0.0mm
21/12:00pm E 11-13 kts 23.3°c 1016.2 hPa 53% 0.0mm
21/11:30am E 10-12 kts 23.5°c 1016.6 hPa 52% 0.0mm
21/11:00am E 9-10 kts 23.7°c 1016.7 hPa 51% 0.0mm
21/10:30am SE 7-9 kts 23.7°c 1017.3 hPa 51% 0.0mm
21/10:00am SE 7-10 kts 24.2°c 1017.5 hPa 48% 0.0mm
21/09:30am SSE 7-9 kts 24.3°c 1017.7 hPa 48% 0.0mm
21/09:00am SSE 8-11 kts 23.9°c 1017.9 hPa 49% 0.0mm
21/08:30am SSE 8-11 kts 23.6°c 1017.8 hPa 51% 0.0mm
21/08:00am SSE 7-9 kts 22.4°c 1017.6 hPa 53% 0.0mm
21/07:30am S 6-8 kts 20.4°c 1017.4 hPa 61% 0.0mm
21/07:00am SSW 6-9 kts 19.7°c 1017.3 hPa 62% 0.0mm
21/06:30am SSW 5-6 kts 17.8°c 1017.1 hPa 70% 0.0mm
21/06:00am SW 6-7 kts 17.7°c 1016.8 hPa 72% 0.0mm
21/05:30am SW 5-6 kts 16.8°c 1016.5 hPa 76% 0.0mm
21/05:00am SW 6-8 kts 16.3°c 1016.4 hPa 76% 0.0mm
21/04:30am WSW 5-7 kts 16.6°c 1016.2 hPa 75% 0.0mm
21/04:00am SW 6-8 kts 17.0°c 1015.8 hPa 73% 0.0mm
21/03:30am SW 6-7 kts 17.1°c 1015.7 hPa 73% 0.0mm
21/03:00am SW 6-7 kts 17.4°c 1015.8 hPa 71% 0.0mm
21/02:30am SW 6-7 kts 17.4°c 1015.9 hPa 71% 0.0mm
21/02:00am SW 5-7 kts 17.5°c 1016.0 hPa 70% 0.0mm
21/01:30am SW 6-7 kts 17.8°c 1016.0 hPa 68% 0.0mm
21/01:00am SW 5-6 kts 18.0°c 1016.3 hPa 67% 0.0mm
21/12:30am SW 5-6 kts 18.3°c 1016.5 hPa 68% 0.0mm
21/12:00am SSW 6-9 kts 17.9°c 1016.6 hPa 67% 0.0mm
Time Wind Speed Temp Pressure Rel. Hum Rain
20/11:30pm S 7-10 kts 18.1°c 1016.9 hPa 67% 0.0mm
20/11:00pm SSW 6-10 kts 18.0°c 1017.1 hPa 66% 0.0mm
20/10:30pm SSW 6-8 kts 18.4°c 1017.2 hPa 66% 0.0mm
20/10:00pm S 6-10 kts 18.7°c 1017.3 hPa 64% 0.0mm
20/09:30pm S 8-14 kts 19.0°c 1017.3 hPa 63% 0.0mm
20/09:00pm SSE 11-16 kts 19.6°c 1017.4 hPa 66% 0.0mm
20/08:30pm SSE 13-17 kts 20.1°c 1017.3 hPa 68% 0.0mm
20/08:00pm SSE 15-21 kts 20.1°c 1017.2 hPa 66% 0.0mm
20/07:30pm SSE 13-17 kts 20.1°c 1017.2 hPa 65% 0.0mm
20/07:00pm SSE 14-19 kts 20.6°c 1017.0 hPa 65% 0.0mm
20/06:30pm SSE 15-20 kts 20.6°c 1016.6 hPa 64% 0.0mm
20/06:00pm SSE 15-20 kts 20.9°c 1016.4 hPa 65% 0.0mm
20/05:30pm SSE 16-23 kts 21.0°c 1016.0 hPa 62% 0.0mm
20/05:00pm SSE 17-23 kts 21.3°c 1015.8 hPa 60% 0.0mm
20/04:30pm SE 19-25 kts 21.4°c 1015.6 hPa 61% 0.0mm
20/04:00pm SSE 21-26 kts 21.5°c 1015.5 hPa 56% 0.0mm
20/03:30pm SSE 21-26 kts 21.6°c 1015.3 hPa 57% 0.0mm
20/03:00pm SE 22-26 kts 22.0°c 1015.4 hPa 56% 0.0mm
20/02:30pm SE 23-27 kts 22.8°c 1015.6 hPa 57% 0.0mm
20/02:00pm SE 22-27 kts 22.1°c 1015.6 hPa 60% 0.0mm
20/01:30pm SE 22-26 kts 22.8°c 1015.6 hPa 59% 0.0mm
20/01:00pm SE 23-27 kts 22.9°c 1015.7 hPa 58% 0.0mm
20/12:30pm SE 22-27 kts 22.7°c 1015.9 hPa 59% 0.0mm
20/12:00pm SE 23-28 kts 22.7°c 1016.0 hPa 56% 0.0mm
20/11:30am SE 22-26 kts 23.8°c 1016.2 hPa 59% 0.0mm
20/11:00am SE 19-23 kts 24.1°c 1016.4 hPa 57% 0.0mm
20/10:30am SE 16-20 kts 24.7°c 1016.8 hPa 57% 0.0mm
20/10:00am SSE 14-18 kts 24.6°c 1017.0 hPa 52% 0.0mm
20/09:30am SSE 12-17 kts 23.9°c 1017.1 hPa 56% 0.0mm
20/09:00am SSE 13-18 kts 23.2°c 1017.0 hPa 53% 0.0mm
20/08:30am SSE 15-21 kts 22.4°c 1016.9 hPa 56% 0.0mm
20/08:00am S 15-21 kts 22.3°c 1016.7 hPa 58% 0.0mm
20/07:30am S 13-21 kts 21.7°c 1016.5 hPa 58% 0.0mm
20/07:00am S 10-18 kts 20.6°c 1016.5 hPa 61% 0.0mm
20/06:30am SSW 9-16 kts 20.2°c 1016.2 hPa 63% 0.0mm
20/06:00am SSW 8-13 kts 19.3°c 1016.1 hPa 69% 0.0mm
20/05:30am SSW 6-9 kts 18.3°c 1015.8 hPa 72% 0.0mm
20/05:00am S 6-9 kts 18.2°c 1015.4 hPa 72% 0.0mm
20/04:30am SSW 5-7 kts 18.2°c 1014.9 hPa 73% 0.0mm
20/04:00am S 7-11 kts 18.6°c 1014.7 hPa 72% 0.0mm
20/03:30am SSW 6-10 kts 18.5°c 1014.4 hPa 71% 0.0mm
20/03:00am S 7-11 kts 19.0°c 1014.1 hPa 70% 0.0mm
20/02:30am S 10-15 kts 19.3°c 1014.3 hPa 70% 0.0mm
20/02:00am S 8-13 kts 19.1°c 1014.4 hPa 71% 0.0mm
20/01:30am S 8-13 kts 19.2°c 1014.4 hPa 72% 0.0mm
20/01:00am S 11-17 kts 19.4°c 1014.8 hPa 71% 0.0mm
20/12:30am S 8-12 kts 19.5°c 1015.0 hPa 72% 0.0mm
20/12:00am S 9-15 kts 19.6°c 1015.4 hPa 72% 0.0mm